Location: Aalen
(48.8330°N, 10.1000°E)
Time: 08:29:40
(UTC+02:00)

Transit 2A - Pass Details

Date: 05 August 2021
Orbit: 594 x 964 km, 66.7° (Epoch: 24 September)

Event Time Altitude Azimuth Distance (km) Brightness Sun altitude
Rises 06:39:22 0° 205° (SSW) 2,837 8.5 5.3°
Reaches altitude 10° 06:41:33 10° 203° (SSW) 1,959 7.8 5.7°
Maximum altitude 06:45:53 66° 121° (ESE) 698 6.2 6.3°
Drops below altitude 10° 06:50:36 10° 40° (NE) 2,124 9.5 7.1°
Sets 06:53:03 0° 38° (NE) 3,101 10.2 7.4°
